This is the latest recevied weather packets stored in our database for station/object KD2ZLA. If no packets are shown the sender has not sent any weather packets the latest 10 day(s).
| Time | Temp. | Humidity | Pressure | Rain* | Wind** | Luminosity | Snow |
|---|---|---|---|---|---|---|---|
| 1777662327 | 12.78° C | 44% | 1010.7 hPa | 0 mm | - | 911 W/m² | - |
| 1777662023 | 11.11° C | 48% | 1010.8 hPa | 0 mm | - | 995 W/m² | - |
| 1777661719 | 11.67° C | 40% | 1010.9 hPa | 0 mm | - | 210 W/m² | - |
| 1777661415 | 11.11° C | 40% | 1011 hPa | 0 mm | - | 890 W/m² | - |
| 1777661112 | 10.56° C | 42% | 1011.2 hPa | 0 mm | - | 416 W/m² | - |
| 1777660806 | 10.56° C | 41% | 1011.2 hPa | 0 mm | - | 347 W/m² | - |
| 1777660504 | 10.56° C | 44% | 1011.3 hPa | 0 mm | - | 359 W/m² | - |
| 1777660200 | 10.56° C | 43% | 1011.2 hPa | 0 mm | - | 316 W/m² | - |
| 1777659897 | 11.11° C | 46% | 1011.2 hPa | 0 mm | - | 416 W/m² | - |
| 1777659593 | 10.56° C | 44% | 1011.5 hPa | 0 mm | - | 345 W/m² | - |
| 1777659291 | 11.11° C | 43% | 1011.3 hPa | 0 mm | - | 305 W/m² | - |
| 1777658988 | 11.11° C | 43% | 1011.3 hPa | 0 mm | - | 388 W/m² | - |
| 1777658685 | 10.56° C | 43% | 1011.6 hPa | 0 mm | - | 527 W/m² | - |
| 1777658381 | 10.56° C | 42% | 1011.5 hPa | 0 mm | - | 276 W/m² | - |
| 1777658078 | 10° C | 43% | 1011.4 hPa | 0 mm | - | 261 W/m² | - |
| 1777657774 | 10.56° C | 43% | 1011.4 hPa | 0 mm | - | 301 W/m² | - |
| 1777657472 | 10.56° C | 43% | 1011.6 hPa | 0 mm | - | 260 W/m² | - |
| 1777657170 | 10.56° C | 44% | 1011.5 hPa | 0 mm | - | 267 W/m² | - |
| 1777656867 | 10.56° C | 42% | 1011.4 hPa | 0 mm | - | 294 W/m² | - |
| 1777656562 | 11.11° C | 44% | 1011.7 hPa | 0 mm | - | 1030 W/m² | - |
| 1777656258 | 11.67° C | 42% | 1011.6 hPa | 0 mm | - | 1061 W/m² | - |
| 1777655954 | 10.56° C | 41% | 1011.6 hPa | 0 mm | - | 938 W/m² | - |
| 1777655650 | 11.67° C | 42% | 1011.7 hPa | 0 mm | - | 294 W/m² | - |
| 1777655347 | 11.67° C | 41% | 1011.8 hPa | 0 mm | - | 1002 W/m² | - |
| 1777655044 | 11.11° C | 42% | 1011.9 hPa | 0 mm | - | 963 W/m² | - |
* Rain latest hour (hover to see other rain measurements)
** Current wind speed in m/s (hover to see current wind gust speed)